Weather History for La Porte, IN

Change the Weather History Date:

Monday, December 3, 2012

  Actual Average (KVPZ) Record (KVPZ)
Temperature  
Mean Temperature 55 °F 32 °F  
Max Temperature 64 °F 39 °F 68 °F (2012)
Min Temperature 46 °F 26 °F 5 °F (2002)
Degree Days  
Heating Degree Days 10 33  
Month to date heating degree days 97  
Since 1 July heating degree days 1355  
Cooling Degree Days 0 0  
Month to date cooling degree days 0  
Year to date cooling degree days 713  
Growing Degree Days 5 (Base 50)    
Moisture  
Dew Point 56 °F    
Average Humidity 91    
Maximum Humidity 100    
Minimum Humidity 72    
Precipitation  
Precipitation 0.00 in 0.08 in 0.33 in (1999)
Month to date precipitation 0.26  
Year to date precipitation 35.59  
Sea Level Pressure  
Sea Level Pressure 29.96 in    
Wind  
Wind Speed 8 mph ()    
Max Wind Speed 23 mph    
Max Gust Speed 34 mph    
Visibility 5.3 miles    
Events Fog , Rain    
T = Trace of Precipitation, MM = Missing Value Source: Averaged Metar Reports

Daily Weather History Graph

Daily Weather History Graph

Search for Another Location

Airport:

Trip Planner

Search our weather history database for the weather conditions in past years. The results will help you decide how hot, cold, wet, or windy it might be!

Date:

Astronomy

Dec. 03, 2012 Rise Set
Actual Time 6:56 AM CST 4:17 PM CST
Civil Twilight 6:25 AM CST 4:48 PM CST
Nautical Twilight 5:51 AM CST 5:22 PM CST
Astronomical Twilight 5:17 AM CST 5:56 PM CST
Moon 9:05 PM CST (12/3) 10:17 AM CST (12/3)
Length of Visible Light 10h 22m
Length of Day
9h 20m
Waning Gibbous, 78% of the Moon is Illuminated
Dec 3
Waning Gibbous
Dec 6
Last Quarter
Dec 13
New
Dec 19
First Quarter
Dec 28
Full

Hourly Weather History & Observations

Time (CST) Temp. Dew Point Humidity Pressure Visibility Wind Dir Wind Speed Gust Speed Precip Events Conditions
12:15 AM 46.6 °F 46.4 °F 99% 30.06 in 0.2 mi Calm Calm - N/A Fog Fog
12:35 AM 47.3 °F 47.1 °F 99% 30.06 in 0.2 mi SSE 4.6 mph - N/A Fog Fog
12:55 AM 48.2 °F 47.8 °F 99% 30.06 in 0.2 mi South 4.6 mph - N/A Fog Fog
1:15 AM 48.6 °F 48.4 °F 99% 30.07 in 0.2 mi SSW 5.8 mph - N/A   Drizzle
1:35 AM 49.1 °F 48.9 °F 99% 30.06 in 0.2 mi South 3.5 mph - N/A   Light Drizzle
1:55 AM 50.0 °F 49.6 °F 99% 30.06 in 0.2 mi SSW 4.6 mph - N/A   Drizzle
2:15 AM 50.5 °F 50.4 °F 99% 30.07 in 0.2 mi Calm Calm - N/A   Light Drizzle
2:35 AM 50.4 °F 50.2 °F 99% 30.06 in 0.2 mi Calm Calm - N/A Fog Fog
2:55 AM 50.5 °F 50.4 °F 99% 30.07 in 0.2 mi South 3.5 mph - N/A Fog Fog
3:15 AM 51.3 °F 51.1 °F 99% 30.06 in 0.2 mi South 3.5 mph - N/A Fog Fog
3:35 AM 52.3 °F 52.2 °F 99% 30.05 in 0.2 mi South 4.6 mph - N/A Fog Fog
3:55 AM 53.8 °F 53.6 °F 99% 30.04 in 0.5 mi South 5.8 mph - N/A Fog Fog
4:35 AM 54.1 °F 54.0 °F 99% 30.03 in 0.5 mi South 6.9 mph - N/A Fog Fog
4:55 AM 54.1 °F 54.0 °F 99% 30.02 in 0.5 mi SSE 4.6 mph - N/A Fog Fog
5:15 AM 54.5 °F 54.5 °F 100% 30.02 in 0.8 mi SSE 4.6 mph - N/A   Overcast
5:35 AM 54.7 °F 54.5 °F 99% 30.02 in 1.0 mi SSE 5.8 mph - N/A   Overcast
5:55 AM 54.9 °F 54.9 °F 100% 30.02 in 1.0 mi SSE 5.8 mph - N/A   Overcast
6:15 AM 54.9 °F 54.9 °F 100% 30.02 in 1.0 mi SSE 5.8 mph - N/A Rain Light Rain
6:35 AM 55.0 °F 55.0 °F 100% 30.02 in 1.0 mi SSE 6.9 mph - N/A   Overcast
6:55 AM 55.4 °F 55.4 °F 100% 30.02 in 1.2 mi SSE 6.9 mph - N/A   Overcast
7:15 AM 55.4 °F 55.4 °F 100% 30.02 in 1.0 mi SSE 6.9 mph - N/A   Overcast
7:35 AM 55.6 °F 55.6 °F 100% 30.02 in 1.0 mi SSE 6.9 mph - N/A   Overcast
7:55 AM 55.8 °F 55.8 °F 100% 30.01 in 1.0 mi SSE 8.1 mph - N/A   Overcast
8:15 AM 55.9 °F 55.9 °F 100% 30.01 in 1.0 mi SSE 5.8 mph - N/A Rain Light Rain
8:35 AM 56.5 °F 56.5 °F 100% 30.01 in 1.5 mi South 8.1 mph - N/A   Overcast
8:55 AM 57.0 °F 57.0 °F 100% 30.01 in 1.8 mi South 8.1 mph - N/A   Overcast
9:15 AM 57.2 °F 57.2 °F 100% 30.00 in 1.5 mi South 8.1 mph - N/A   Overcast
9:35 AM 57.6 °F 57.6 °F 100% 30.00 in 1.5 mi South 9.2 mph - N/A   Overcast
9:55 AM 58.1 °F 58.1 °F 100% 30.00 in 2.0 mi South 9.2 mph - N/A Rain Light Rain
10:15 AM 58.5 °F 58.5 °F 100% 29.99 in 1.5 mi South 9.2 mph - N/A   Overcast
10:35 AM 58.8 °F 58.8 °F 100% 29.98 in 1.5 mi South 11.5 mph - N/A   Overcast
10:55 AM 59.2 °F 59.2 °F 100% 29.97 in 2.0 mi South 10.4 mph - N/A   Overcast
11:15 AM 59.4 °F 59.4 °F 100% 29.96 in 2.5 mi SSW 11.5 mph - N/A   Overcast
11:35 AM 59.9 °F 59.9 °F 100% 29.94 in 4.0 mi South 8.1 mph - N/A   Overcast
11:55 AM 60.3 °F 60.3 °F 100% 29.94 in 4.0 mi South 12.7 mph 16.1 mph N/A   Overcast
12:15 PM 60.8 °F 60.8 °F 100% 29.93 in 5.0 mi SSW 10.4 mph 16.1 mph N/A   Overcast
12:35 PM 61.7 °F 61.7 °F 100% 29.92 in 5.0 mi South 10.4 mph 18.4 mph N/A   Overcast
1:15 PM 62.6 °F 62.6 °F 100% 29.90 in 7.0 mi South 11.5 mph 17.3 mph N/A   Overcast
1:35 PM 62.6 °F 62.6 °F 100% 29.90 in 7.0 mi South 15.0 mph 19.6 mph N/A   Overcast
1:55 PM 63.0 °F 62.1 °F 97% 29.89 in 7.0 mi South 13.8 mph 21.9 mph N/A   Overcast
2:15 PM 63.1 °F 61.2 °F 93% 29.89 in 10.0 mi South 11.5 mph 19.6 mph N/A   Overcast
2:35 PM 64.4 °F 60.4 °F 87% 29.88 in 10.0 mi South 11.5 mph 18.4 mph N/A   Overcast
2:55 PM 64.6 °F 60.3 °F 86% 29.88 in 10.0 mi South 12.7 mph 20.7 mph N/A   Mostly Cloudy
3:15 PM 64.8 °F 60.3 °F 85% 29.87 in 10.0 mi South 11.5 mph 19.6 mph N/A   Scattered Clouds
3:35 PM 64.2 °F 59.9 °F 86% 29.87 in 10.0 mi South 12.7 mph 19.6 mph N/A   Clear
3:55 PM 64.4 °F 59.7 °F 85% 29.86 in 10.0 mi South 10.4 mph 18.4 mph N/A   Clear
4:15 PM 64.4 °F 59.2 °F 83% 29.87 in 10.0 mi South 12.7 mph 17.3 mph N/A   Clear
4:35 PM 64.0 °F 59.0 °F 84% 29.86 in 10.0 mi South 12.7 mph 18.4 mph N/A   Clear
4:55 PM 63.7 °F 59.0 °F 85% 29.86 in 10.0 mi South 13.8 mph 21.9 mph N/A   Clear
5:15 PM 63.9 °F 58.1 °F 81% 29.87 in 10.0 mi SSW 11.5 mph 20.7 mph N/A   Clear
5:35 PM 64.4 °F 57.2 °F 77% 29.87 in 10.0 mi SSW 15.0 mph 25.3 mph N/A   Scattered Clouds
5:55 PM 64.4 °F 56.3 °F 75% 29.88 in 10.0 mi SSW 15.0 mph 21.9 mph N/A   Mostly Cloudy
6:15 PM 64.8 °F 55.4 °F 72% 29.89 in 10.0 mi SSW 19.6 mph 28.8 mph N/A   Overcast
6:35 PM 64.4 °F 55.4 °F 73% 29.89 in 10.0 mi SSW 15.0 mph 23.0 mph N/A   Overcast
6:55 PM 63.7 °F 55.0 °F 73% 29.90 in 10.0 mi SSW 13.8 mph 20.7 mph N/A   Mostly Cloudy
7:15 PM 63.0 °F 54.7 °F 74% 29.89 in 10.0 mi SSW 21.9 mph 29.9 mph N/A   Scattered Clouds
7:35 PM 63.0 °F 54.7 °F 74% 29.90 in 10.0 mi SSW 19.6 mph 29.9 mph N/A   Scattered Clouds
7:55 PM 62.8 °F 54.9 °F 75% 29.90 in 10.0 mi SSW 18.4 mph 27.6 mph N/A   Mostly Cloudy
8:15 PM 62.2 °F 54.7 °F 76% 29.90 in 10.0 mi SSW 18.4 mph 26.5 mph N/A   Mostly Cloudy
8:35 PM 62.4 °F 54.5 °F 75% 29.90 in 10.0 mi SSW 21.9 mph 29.9 mph N/A   Overcast
8:55 PM 61.9 °F 54.5 °F 77% 29.90 in 10.0 mi SW 19.6 mph 31.1 mph N/A   Mostly Cloudy
9:15 PM 61.5 °F 54.7 °F 78% 29.90 in 10.0 mi SSW 20.7 mph 29.9 mph N/A   Mostly Cloudy
9:35 PM 61.9 °F 54.9 °F 78% 29.90 in 10.0 mi SW 20.7 mph 27.6 mph N/A   Overcast
9:55 PM 61.9 °F 55.0 °F 78% 29.90 in 10.0 mi SW 20.7 mph 29.9 mph N/A   Overcast
10:15 PM 61.9 °F 55.0 °F 78% 29.90 in 10.0 mi SW 16.1 mph 31.1 mph N/A   Overcast
10:35 PM 61.9 °F 55.4 °F 79% 29.91 in 10.0 mi SW 18.4 mph 27.6 mph N/A   Overcast
10:55 PM 62.1 °F 55.6 °F 79% 29.91 in 10.0 mi SW 23.0 mph 34.5 mph N/A   Overcast
11:15 PM 62.1 °F 55.6 °F 79% 29.91 in 10.0 mi SW 21.9 mph 28.8 mph N/A   Overcast
11:35 PM 62.2 °F 55.6 °F 79% 29.91 in 10.0 mi SW 16.1 mph 28.8 mph N/A   Overcast
11:55 PM 61.9 °F 55.8 °F 80% 29.91 in 10.0 mi SW 19.6 mph 28.8 mph N/A   Overcast